Regional Weather Roundup
Issued by NWS Newport/Morehead, NC

Current Version | Previous Version | Graphics & Text | Print | Product List | Glossary Off
Versions: 1 2 3 4 5 6 7 8 9 10 11 12 13 14 15 16 17 18 19 20 21 22 23 24 25 26 27 28 29 30 31 32 33 34 35 36 37 38 39 40 41 42 43 44 45 46 47 48 49 50

000
ASUS42 KMHX 030625
RWRMHX
WEATHER ROUNDUP FOR EASTERN NORTH CAROLINA
NATIONAL WEATHER SERVICE NEWPORT/MOREHEAD CITY NC
200 AM EDT MON AUG 03 2015

NOTE: "FAIR" INDICATES FEW OR NO CLOUDS BELOW 12,000 FEET
WITH NO SIGNIFICANT WEATHER AND/OR OBSTRUCTIONS TO VISIBILITY

NCZ015>017-031-032-045>047-102-103-030700-
NORTH COAST

CITY           SKY/WX    TMP DP  RH WIND       PRES   REMARKS
EDENTON        CLEAR     75  72  89 S7        29.93F
ELIZABETH CITY CLEAR     73  71  93 S3        29.93F
KITTY HAWK     PTCLDY    79  73  83 SW3       29.93F
MANTEO         PTCLDY    78  74  88 SW8       29.95S

$$

NCZ045>047-081-094-103-104-030700-
CENTRAL COAST

CITY           SKY/WX    TMP DP  RH WIND       PRES   REMARKS
FRISCO         PTCLDY    78  74  87 W6        29.95F
SWANQUARTER      N/A     79 N/A N/A SW1       29.91S

$$

NCZ095-097-098-100-101-030700-
SOUTHERN COAST

CITY           SKY/WX    TMP DP  RH WIND       PRES   REMARKS
BEAUFORT       CLOUDY    80  75  84 SW20G25   29.93F
CEDAR ISLAND     N/A     77 N/A N/A S1        29.97S
JACKSONVILLE   MOCLDY    75  72  90 CALM      29.93S
PINEY ISLAND   PTCLDY   N/A N/A N/A CALM      29.94S
WILMINGTON     RAIN      75  73  93 SW13      29.94S FOG


$$

NCZ011>013-027>030-043-044-078>080-089-090>093-098-030700-
COASTAL PLAIN

CITY           SKY/WX    TMP DP  RH WIND       PRES   REMARKS
AHOSKIE        CLEAR     67  65  92 CALM      29.93F
CLINTON        PTCLDY    73  73  98 CALM      29.94F
ELIZABETHTOWN  MOCLDY    74  73  97 CALM      29.93S
GOLDSBORO      CLEAR     75  73  92 CALM      29.92F
GREENVILLE     CLEAR     73  72  94 CALM      29.95F
HAVELOCK       MOCLDY    75  72  90 CALM      29.94F
KENANSVILLE    PTCLDY    71  70  95 CALM      29.95S
KINSTON        PTCLDY    73  71  95 N3        29.95S
NEW BERN       PTCLDY    73  70  90 CALM      29.95F
RICHLANDS      MOCLDY    72  64  78 CALM      29.94S
ROCKY MOUNT    CLEAR     75  71  87 CALM      29.94F
WASHINGTON     CLEAR     73  72  95 CALM      29.94F
WHITEVILLE     PTCLDY    75  72  91 CALM      29.92F

$$

AMZ130-135-150-152-154-156-158-170-250-252-270-ANZ085-086-088-633-658-670-030700-
MARINE OBSERVATIONS

STATION/POSITION TIME  TEMP    WIND        PRES    WAVE   SWELL
                       AIR SEA DIR/SP/G            HT/PER HT/PER
                 (UTC) (F)     (DEG/KT/KT) (MB)    (FT/S) (FT/S)
CHESAPEAKE LIGHT 0600   80     240/  4/  4 1013.5
64 E VA BEACH    0550   81 81  210/ 14/ 16 1012.7    3/ 5   2/ 7
DUCK             0600   80 73  220/ 12/ 16 1012.7
2 E DUCK         0511      79                N/A     2/12   2/12
OREGON INLET     0600   80 86  240/ 10/ 12 1013.9
13E OREGON INLT  0600      81                N/A     3/12   2/12
HATTERAS CG      0600   78 83              1013.7
DIAMOND BUOY     0550   82 85  230/ 12/ 16 1014.0    3/ 5   2/ 7
CAPE LOOKOUT     0600   79     240/ 14/ 18 1013.3
BEAUFORT LAB     0600   79 83              1013.0
30 SE NEW RVR IN NOT AVBL
27 SE WRIGHTSVLE 0600   76 82  240/ 21/ 25   N/A
5 SE WRIGHTSVLE  0508   78 83  210/ 21/ 27 1013.5
225 S CAPE HAT   0550   82 81  200/ 16/ 19 1016.2    5/ 7   2/11
41 SE CHARLESTON 0550   83 83  190/ 19/ 23 1011.9    7/ 7

$$



USA.gov is the U.S. government's official web portal to all federal, state and local government web resources and services.